Location: Napier
(39.4830°S, 176.9170°E)
Time: 16:05:39
(UTC+13:00)

ERS-1 Rocket - Visible Passes

Search period start: 23 November 2019 00:00
Search period end: 03 December 2019 00:00
Orbit: 753 x 758 km, 98.5° (Epoch: 22 November)

Date Brightness Start Highest point End Pass type
(mag) Time Alt. Az. Time Alt. Az. Time Alt. Az.
23 Nov 4.2 00:26:01 10° S 00:30:35 34° WSW 00:30:51 34° WSW visible
23 Nov 5.2 22:10:40 10° ESE 22:10:52 10° ESE 22:10:52 10° ESE visible
23 Nov 3.0 23:46:04 10° S 23:50:52 76° SSW 23:50:52 76° SSW visible
24 Nov 3.7 23:06:43 10° SSE 23:10:53 40° ESE 23:10:53 40° ESE visible
25 Nov 4.8 00:46:07 10° SSW 00:50:03 23° WSW 00:50:53 22° W visible
25 Nov 4.7 22:28:21 10° SE 22:30:54 17° E 22:30:54 17° E visible
26 Nov 3.5 00:05:49 10° S 00:10:47 52° WSW 00:10:54 52° WSW visible
26 Nov 3.1 23:26:11 10° SSE 23:30:54 63° ESE 23:30:54 63° ESE visible
27 Nov 5.2 01:06:35 10° SSW 01:09:28 15° WSW 01:10:55 14° W visible
27 Nov 4.2 22:47:13 10° SE 22:50:55 26° E 22:50:55 26° E visible
28 Nov 4.2 00:25:44 10° S 00:30:19 34° WSW 00:30:55 33° W visible
28 Nov 5.1 22:10:30 10° ESE 22:10:55 10° E 22:10:55 10° E visible
28 Nov 2.9 23:45:47 10° S 23:50:55 81° WSW 23:50:55 81° WSW visible
29 Nov 3.6 23:06:28 10° SSE 23:10:56 41° E 23:10:56 41° E visible
30 Nov 4.8 00:45:50 10° SSW 00:49:47 23° WSW 00:50:56 21° W visible
30 Nov 4.7 22:28:07 10° SE 22:30:56 17° E 22:30:56 17° E visible
01 Dec 3.5 00:05:33 10° S 00:10:31 53° WSW 00:10:56 51° W visible
01 Dec 3.0 23:25:54 10° SSE 23:30:56 65° E 23:30:56 65° E visible
02 Dec 5.3 01:06:17 10° SSW 01:09:12 16° WSW 01:10:56 13° W visible
02 Dec 4.2 22:46:58 10° SE 22:50:56 26° E 22:50:56 26° E visible
